Greenville, MS

8:55 PM CST on November 20, 2017 (GMT -0600)
Mid Delta Regional

Weather History for KGLH - December, 2012

Change the Weather History Date:

Monday, December 24, 2012

  Actual Average Record
Temperature  
Mean Temperature 57 °F 44 °F  
Max Temperature 65 °F 53 °F 78 °F (1955)
Min Temperature 48 °F 35 °F 1 °F (1989)
Degree Days  
Heating Degree Days 8 21  
Month to date heating degree days 237 468  
Since 1 July heating degree days 776 930  
Cooling Degree Days 0 0  
Month to date cooling degree days 7 0  
Year to date cooling degree days 2453 2186  
Growing Degree Days 6 (Base 50)    
Moisture  
Dew Point 51 °F    
Average Humidity 82    
Maximum Humidity 96    
Minimum Humidity 67    
Precipitation  
Precipitation T in 0.18 in 2.84 in (1973)
Month to date precipitation 3.55 4.57  
Year to date precipitation 39.80 51.59  
Sea Level Pressure  
Sea Level Pressure 29.90 in    
Wind  
Wind Speed 7 mph (NW)    
Max Wind Speed 23 mph    
Max Gust Speed 60 mph    
Visibility 10 miles    
Events Rain    
T = Trace of Precipitation, MM = Missing Value Source: NWS Daily Summary

Daily Weather History Graph

Daily Weather History Graph

Search for Another Location

Airport or City:

Trip Planner

Search our weather history database for the weather conditions in past years. The results will help you decide how hot, cold, wet, or windy it might be!

Date:

Astronomy

Dec. 24, 2012 Rise Set
Actual Time 7:05 AM CST 5:02 PM CST
Civil Twilight 6:38 AM CST 5:29 PM CST
Nautical Twilight 6:07 AM CST 6:00 PM CST
Astronomical Twilight 5:36 AM CST 6:31 PM CST
Moon 2:26 PM CST (12/24) 3:48 AM CST (12/24)
Length of Visible Light 10h 51m
Length of Day
9h 56m
Waxing Gibbous, 88% of the Moon is Illuminated
Dec 24
Waxing Gibbous
Dec 28
Full
Jan 4
Last Quarter
Jan 11
New
Jan 18
First Quarter

Hourly Weather History & Observations

Time (CST) Temp. Dew Point Humidity Pressure Visibility Wind Dir Wind Speed Gust Speed Precip Events Conditions
12:53 AM 57.9 °F 55.9 °F 93% 29.83 in 10.0 mi South 10.4 mph - N/A   Scattered Clouds
1:53 AM 61.0 °F 57.9 °F 90% 29.83 in 10.0 mi SSW 12.7 mph - N/A   Partly Cloudy
2:53 AM 61.0 °F 57.9 °F 90% 29.83 in 10.0 mi SW 10.4 mph - N/A   Mostly Cloudy
3:07 AM 60.8 °F 57.2 °F 88% 29.80 in 10.0 mi SW 9.2 mph - N/A   Mostly Cloudy
3:24 AM 60.8 °F 59.0 °F 94% 29.81 in 10.0 mi WSW 9.2 mph - 0.00 in Rain Light Rain
3:37 AM 60.8 °F 57.2 °F 88% 29.80 in 10.0 mi SW 10.4 mph - 0.00 in   Scattered Clouds
3:53 AM 59.0 °F 57.0 °F 93% 29.82 in 10.0 mi WSW 10.4 mph - 0.00 in   Clear
4:53 AM 55.0 °F 52.0 °F 89% 29.83 in 10.0 mi West 6.9 mph - N/A   Clear
5:53 AM 54.0 °F 50.0 °F 86% 29.85 in 10.0 mi West 10.4 mph - N/A   Clear
6:53 AM 51.1 °F 41.0 °F 68% 29.88 in 10.0 mi West 8.1 mph - N/A   Clear
7:53 AM 52.0 °F 44.1 °F 74% 29.91 in 10.0 mi West 9.2 mph - N/A   Scattered Clouds
8:02 AM 51.8 °F 44.6 °F 76% 29.89 in 10.0 mi West 9.2 mph - N/A   Mostly Cloudy
8:19 AM 51.8 °F 44.6 °F 76% 29.89 in 10.0 mi West 10.4 mph - N/A   Scattered Clouds
8:45 AM 53.6 °F 46.4 °F 77% 29.91 in 10.0 mi West 10.4 mph - N/A   Mostly Cloudy
8:53 AM 53.1 °F 46.0 °F 77% 29.93 in 10.0 mi WNW 9.2 mph - N/A   Mostly Cloudy
9:06 AM 53.6 °F 46.4 °F 77% 29.93 in 10.0 mi WNW 8.1 mph - N/A   Overcast
9:37 AM 53.6 °F 48.2 °F 82% 29.93 in 10.0 mi West 8.1 mph - N/A   Overcast
9:53 AM 54.0 °F 48.0 °F 80% 29.95 in 10.0 mi WNW 6.9 mph - N/A   Overcast
10:14 AM 55.4 °F 48.2 °F 77% 29.93 in 10.0 mi West 5.8 mph - N/A   Overcast
10:53 AM 57.9 °F 52.0 °F 81% 29.96 in 10.0 mi NW 8.1 mph - N/A   Overcast
11:01 AM 57.2 °F 51.8 °F 82% 29.94 in 10.0 mi NW 10.4 mph 59.8 mph N/A   Squalls
11:25 AM 57.2 °F 51.8 °F 82% 29.94 in 10.0 mi NW 11.5 mph - N/A   Overcast
11:53 AM 60.1 °F 53.1 °F 78% 29.95 in 10.0 mi NW 6.9 mph - N/A   Overcast
12:53 PM 62.1 °F 54.0 °F 75% 29.93 in 10.0 mi North 5.8 mph - N/A   Scattered Clouds
1:30 PM 62.6 °F 53.6 °F 72% 29.88 in 10.0 mi NNE 8.1 mph - N/A   Mostly Cloudy
1:53 PM 62.1 °F 53.1 °F 72% 29.91 in 10.0 mi ENE 6.9 mph - N/A   Mostly Cloudy
2:00 PM 60.8 °F 51.8 °F 72% 29.89 in 10.0 mi Calm Calm - N/A   Partly Cloudy
2:28 PM 64.4 °F 53.6 °F 68% 29.89 in 10.0 mi East 5.8 mph - N/A   Mostly Cloudy
2:53 PM 62.1 °F 52.0 °F 70% 29.91 in 10.0 mi Calm Calm - N/A   Mostly Cloudy
3:28 PM 60.8 °F 51.8 °F 72% 29.89 in 10.0 mi East 4.6 mph - N/A   Scattered Clouds
3:53 PM 62.1 °F 52.0 °F 70% 29.91 in 10.0 mi ENE 4.6 mph - N/A   Mostly Cloudy
4:05 PM 60.8 °F 51.8 °F 72% 29.89 in 10.0 mi Calm Calm - N/A   Scattered Clouds
4:53 PM 59.0 °F 51.1 °F 75% 29.91 in 10.0 mi ESE 3.5 mph - N/A   Clear
5:53 PM 51.1 °F 50.0 °F 96% 29.91 in 10.0 mi NE 5.8 mph - N/A   Clear
6:53 PM 54.0 °F 51.1 °F 90% 29.93 in 8.0 mi NE 5.8 mph - N/A   Clear
7:53 PM 52.0 °F 50.0 °F 93% 29.94 in 8.0 mi ENE 9.2 mph - N/A   Clear
8:53 PM 51.1 °F 48.0 °F 89% 29.95 in 8.0 mi NE 9.2 mph - N/A   Clear
9:53 PM 50.0 °F 48.0 °F 93% 29.95 in 7.0 mi NE 9.2 mph - N/A   Partly Cloudy
10:53 PM 48.9 °F 46.9 °F 93% 29.95 in 7.0 mi NE 10.4 mph - N/A   Clear
11:53 PM 48.9 °F 46.0 °F 90% 29.94 in 8.0 mi NNE 10.4 mph - N/A   Clear